Location: Unspecified
(17.6330°N, 0.0000°E)
Time: 15:19:48
(UTC+00:00)

A-11 Canister half - Pass Details

Date: 24 June 2019
Orbit: 1514 x 1686 km, 47.2° (Epoch: 21 August)

Event Time Altitude Azimuth Distance (km) Brightness Sun altitude
Rises 19:07:45 0° 300° (WNW) 4,685 14.2 -7.2°
Reaches altitude 10° 19:11:17 10° 290° (WNW) 3,685 12.7 -8.0°
Maximum altitude 19:18:56 30° 233° (SW) 2,460 10.4 -9.6°
Drops below altitude 10° 19:26:35 10° 176° (S) 3,668 10.7 -11.2°
Sets 19:30:08 0° 166° (SSE) 4,659 11.1 -11.9°
